Regional Weather Roundup
Issued by NWS Glasgow, MT

Home | Current Version | Previous Version | Text Only | Print | Product List | Glossary On
Versions: 1 2 3 4 5 6 7 8 9 10 11 12 13 14 15 16 17 18 19 20 21 22 23 24 25 26 27
000
ASUS45 KGGW 231015
RWRGGW
HOURLY REGIONAL WEATHER ROUNDUP FOR NORTHEAST MONTANA
NATIONAL WEATHER SERVICE GLASGOW MONTANA
300 AM MST FRI FEB 23 2018

NOTE: "FAIR" INDICATES FEW OR NO CLOUDS BELOW 12,000 FEET WITH NO
SIGNIFICANT WEATHER AND/OR OBSTRUCTIONS TO VISISBILITY.

NORTHEAST MONTANA


CITY           SKY/WX    TMP DP  RH WIND       PRES   REMARKS
GLASGOW        MOCLDY   -14 -19  79 NW5       30.21F
PLENTYWOOD       N/A     -3  -7  82 S5G13       N/A
WOLF POINT     MOCLDY   -12 -18  74 SW10      30.26F WCI -31
JORDAN           N/A    -10 -17  71 NW3       30.20F
WINNETT          N/A    -16 -20  82 CALM        N/A
SIDNEY         NOT AVBL
GLENDIVE       PTCLDY   -12 -20  67 CALM      30.22F
MALTA            N/A    -12 -15  86 NE2         N/A

FORT PECK REPORTS


CITY           SKY/WX    TMP DP  RH WIND       PRES   REMARKS
FORT PECK        N/A    -12 -16  82 SE3         N/A
THE PINES        N/A     -8 -11  86 SW3         N/A

SOUTHEAST MONTANA


CITY           SKY/WX    TMP DP  RH WIND       PRES   REMARKS
BILLINGS       PTCLDY     1  -3  83 SW9       30.13F
MILES CITY     MOCLDY   -15 -17  91 SE5       30.22F FOG
BAKER          PTCLDY    -6  -9  86 W3        30.17F
LIVINGSTON       N/A      1  -3  83 MISG      30.05F

CENTRAL MONTANA


CITY           SKY/WX    TMP DP  RH WIND       PRES   REMARKS
HAVRE          PTCLDY    -7 -11  83 SW14      30.17F WCI -28
LEWISTOWN      PTCLDY    -6 -11  79 SE5       30.06F
GREAT FALLS    PTCLDY    -5  -9  83 S9        30.09F
CUT BANK       PTCLDY    -9 -13  83 SW3       30.04F
HELENA         PTCLDY    -1  -6  79 CALM      30.12F
BUTTE          LGT SNOW   5   0  79 N6        29.99R
BOZEMAN        CLOUDY     7   1  76 SW3       30.07S

WESTERN MONTANA


CITY           SKY/WX    TMP DP  RH WIND       PRES   REMARKS
MISSOULA       CLEAR      5   0  79 N3        30.18S
KALISPELL      NOT AVBL

NORTH DAKOTA


CITY           SKY/WX    TMP DP  RH WIND       PRES   REMARKS
WILLISTON      CLOUDY    -8 -13  78 SW6       30.24F
DICKINSON      PTCLDY    -2  -8  76 NW14      30.13S WCI -21
MINOT          CLOUDY     5  -2  72 W15       30.18F WCI -13
BISMARCK       MOCLDY    10   2  69 NW10      30.19S WCI  -4

SOUTHERN SASKATCHEWAN


CITY           SKY/WX    TMP DP  RH WIND       PRES   REMARKS
REGINA         MOCLDY     0  -4  85 W6        30.17F
MOOSE JAW      FLURRIES  10   7  85 W8        30.18
ESTEVAN        FLURRIES   1  -4  78 S2        30.18F
SWIFT CURRENT  FLURRIES   5   1  85 SW14      30.11F WCI -12





USA.gov is the U.S. government's official web portal to all federal, state and local government web resources and services.